Lexington Weather

Lexington, Massachusetts, USA

48°F
12/8/2022 3:16pm 
  • Lexington Conditions: Clear
  • Temperature: 47.8°F / 8.8°CColder 1.7°F than last hour.
  • Dew Point: 35.1°FDecreased 0.1°Fsince last hour.
  • Relative Humidity: 61%Increased 3.0% since last hour.
  • Wind: Wind from N N 3 mph, 10-min avg: 1 mph, gust: 6 mph
  • Barometer: 30.09 inRising 0.03  inHg/hr Rising Slowly
  • Visibility: 10 miles
  • Rain Today: 0.00 in
  •   

Warning: Undefined variable $rc in /homepages/6/d276339138/htdocs/weather/20190804/ssi/nwsProduct.php on line 323

Warning: Undefined variable $rc in /homepages/6/d276339138/htdocs/weather/20190804/ssi/nwsProduct.php on line 325

Warning: Undefined variable $rc in /homepages/6/d276339138/htdocs/weather/20190804/ssi/nwsProduct.php on line 323

Warning: Undefined variable $rc in /homepages/6/d276339138/htdocs/weather/20190804/ssi/nwsProduct.php on line 325

Warning: Undefined variable $rc in /homepages/6/d276339138/htdocs/weather/20190804/ssi/nwsProduct.php on line 323

Warning: Undefined variable $rc in /homepages/6/d276339138/htdocs/weather/20190804/ssi/nwsProduct.php on line 325

Warning: Undefined variable $rc in /homepages/6/d276339138/htdocs/weather/20190804/ssi/nwsProduct.php on line 323

Warning: Undefined variable $rc in /homepages/6/d276339138/htdocs/weather/20190804/ssi/nwsProduct.php on line 325

Warning: Undefined variable $rc in /homepages/6/d276339138/htdocs/weather/20190804/ssi/nwsProduct.php on line 323

Warning: Undefined variable $rc in /homepages/6/d276339138/htdocs/weather/20190804/ssi/nwsProduct.php on line 325

Warning: Undefined variable $rc in /homepages/6/d276339138/htdocs/weather/20190804/ssi/nwsProduct.php on line 323

Warning: Undefined variable $rc in /homepages/6/d276339138/htdocs/weather/20190804/ssi/nwsProduct.php on line 325

Warning: Undefined variable $rc in /homepages/6/d276339138/htdocs/weather/20190804/ssi/nwsProduct.php on line 323

Warning: Undefined variable $rc in /homepages/6/d276339138/htdocs/weather/20190804/ssi/nwsProduct.php on line 325

Regional Weather Roundup
for Boston, MA

        
000
ASUS41 KBOX 061910
RWRBOX

REGIONAL WEATHER ROUNDUP
NATIONAL WEATHER SERVICE BOSTON/NORTON MA
200 PM EST TUE DEC 06 2022

NOTE:  "FAIR" INDICATES FEW OR NO CLOUDS BELOW 12,000 FEET WITH NO 
SIGNIFICANT WEATHER AND/OR OBSTRUCTIONS TO VISIBILITY.

MAZALL-062000-
EASTERN MASSACHUSETTS
  
CITY           SKY/WX    TMP DP  RH WIND       PRES   REMARKS
BOSTON         CLOUDY    53  43  68 SE8       30.39F                  
BEVERLY        NOT AVBL                                               
LAWRENCE       PTSUNNY   54  43  66 VRB5      30.40S                  
BEDFORD        PTSUNNY   56  42  59 S8        30.37S                  
NORWOOD        PTSUNNY   57  42  57 S13G18    30.38F                  
MARSHFIELD       N/A     54  46  76 SE10G18   30.40S                  
PLYMOUTH       MOSUNNY   57  43  59 SE7       30.40S                  
TAUNTON          N/A    N/A N/A N/A MISG      30.38F                  
NEW BEDFORD    SUNNY     56  46  69 SE13      30.38F                  
$$

MAZALL-062000-
CAPE COD AND THE ISLANDS
  
CITY           SKY/WX    TMP DP  RH WIND       PRES   REMARKS
FALMOUTH       SUNNY     54  46  76 SE14      30.41S                  
HYANNIS        SUNNY     53  47  79 SE8       30.40F                  
CHATHAM        SUNNY     54  47  77 SE7       30.42F                  
PROVINCETOWN   SUNNY     53  47  79 SE8       30.42F                  
NANTUCKET      SUNNY     56  49  77 E16       30.40F                  
MARTHAS VNYRD  SUNNY     55  48  77 SE12      30.40F                  
$$
 
MAZALL-062000-
CENTRAL AND WESTERN MASSACHUSETTS
  
CITY           SKY/WX    TMP DP  RH WIND       PRES   REMARKS
WORCESTER      CLOUDY    53  45  74 SE12      30.35F                  
FITCHBURG      CLOUDY    49  39  68 CALM      30.38F                  
ORANGE         LGT RAIN  48  45  89 CALM      30.35S                  
SPRINGFIELD    LGT RAIN  45  43  94 N3        30.31F                  
WESTFIELD      LGT RAIN  42  39  89 CALM      30.34S                  
NORTH ADAMS    LGT RAIN  51  44  77 E14G25    30.30S                  
PITTSFIELD     LGT RAIN  48  44  86 SE14G21   30.27F                  
$$
 
RIZALL-062000-
RHODE ISLAND
  
CITY           SKY/WX    TMP DP  RH WIND       PRES   REMARKS
PROVIDENCE     PTSUNNY   54  46  74 S9        30.39R                  
NEWPORT        MOSUNNY   53  47  79 SE13      30.38                   
BLOCK ISLAND   CLOUDY    54  49  83 SE15G23   30.36F                  
SMITHFIELD     CLOUDY    53  46  77 VRB7      30.38S                  
WESTERLY       CLOUDY    56  50  80 SE8       30.36S                  
$$
 
CTZALL-062000-
CONNECTICUT
  
CITY           SKY/WX    TMP DP  RH WIND       PRES   REMARKS
BRADLEY INTL   CLOUDY    47  42  83 CALM      30.33F                  
HARTFORD       CLOUDY    50  43  77 N5        30.33F                  
BRIDGEPORT     LGT RAIN  56  48  74 SE15      30.31S                  
DANBURY        CLOUDY    56  48  74 VRB6      30.30F                  
GROTON         CLOUDY    58  50  75 SE13      30.35S                  
NEW HAVEN      CLOUDY    57  50  77 SE10      30.32S                  
CHESTER        FAIR      57  48  72 SE9       30.34S                  
MERIDEN        CLOUDY    57  44  62 S8        30.33S                  
WILLIMANTIC    CLOUDY    57  44  62 S12       30.35S                  
OXFORD         LGT RAIN  53  47  79 SE12      30.31F                  
$$

MEZ002-015-021-024-NHZ003-005-008-011-012-014-VTZ005-008-062000-
NORTHERN NEW ENGLAND
  
CITY           SKY/WX    TMP DP  RH WIND       PRES   REMARKS
PORTLAND ME    PTSUNNY   50  44  80 SE10      30.45F                  
BANGOR ME      CLOUDY    50  40  68 SE9       30.50S                  
CONCORD NH     CLOUDY    50  42  74 SE9       30.38F                  
MANCHESTER NH  CLOUDY    53  43  68 SE3       30.37F                  
NASHUA NH      PTSUNNY   49  45  86 NW3       30.39F                  
PORTSMOUTH NH  CLOUDY    52  46  79 SE14      30.41R                  
JAFFREY NH     LGT RAIN  47  42  83 SE3       30.35S                  
KEENE NH       LGT RAIN  48  44  86 VRB3        N/A                   
BURLINGTON VT  LGT RAIN  45  43  93 SE3       30.25F FOG              
MT. WASHINGTON FRZ RAIN  27  27 100 S36         N/A  VSB 0   WCI   9  
$$

NYZ052-076-062000-
EASTERN NEW YORK
  
CITY           SKY/WX    TMP DP  RH WIND       PRES   REMARKS
ALBANY         LGT RAIN  47  43  86 CALM      30.26F                  
NEW YORK CITY  LGT RAIN  57  50  77 SE9       30.27F                  
$$
 
ANZALL-062000-
MARINE OBSERVATIONS
  
STATION/POSITION TIME  TEMP    WIND        PRES    VSBY  WAVE
                       AIR SEA DIR/SP/G                  HT/PER
                 (UTC) (F)     (DEG/KT/KT) (MB)    (MI)  (FT/S)
BOSTON BUOY      1850          130/ 14/ 17 1030.1F         3/ 5
BUZZARDS BAY     1800   52     120/ 19/ 20 1028.8F
NANTUCKET SOUND  1850   51 49  120/ 12/ 14 1029.6F         2/ 3
MASS BAY-STELLWA 1704   51 50  140/ 14/ 17 1029.4F  1 7/8  4/ 5
ISLE OF SHOALS   1800   50     140/ 18/ 20 1029.2F
S OF BLOCK IS    1826      54                N/A           5/ 5
$$

......................KEY.........................
  SKY/WX - SKY CONDITION/PRESENT WEATHER
  TMP    - TEMPERATURE IN FAHRENHEIT
  DWPT   - DEWPOINT IN FAHRENHEIT
  RH     - RELATIVE HUMIDITY IN PERCENT
  WIND   - DIRECTION AND SPEED IN MPH
  PRES   - MEAN SEA LEVEL PRESSURE IN INCHES OF HG
  WCI    - WIND CHILL INDEX
  VSB    - VISIBILITY IN MILES
  HX     - HEAT INDEX
  TC     - TEMPERATURE IN CELSIUS
  VRB    - VARIABLE WIND DIRECTION
  N/A    - NOT AVAILABLE
  
      

Other recent Regional Weather Roundups

Thu Dec 8, 2:10pm

Thu Dec 8, 1:10pm

Thu Dec 8, 12:10pm

Thu Dec 8, 11:10am

Thu Dec 8, 10:10am

Thu Dec 8, 9:10am

Thu Dec 8, 8:10am

Thu Dec 8, 7:10am

Thu Dec 8, 6:10am

Thu Dec 8, 5:10am

Thu Dec 8, 4:10am

Thu Dec 8, 3:10am

Thu Dec 8, 2:10am

Thu Dec 8, 1:10am

Thu Dec 8, 12:10am

Wed Dec 7, 11:10pm

Wed Dec 7, 10:10pm

Wed Dec 7, 9:10pm

Wed Dec 7, 8:10pm

Wed Dec 7, 7:10pm

Wed Dec 7, 6:10pm

Wed Dec 7, 5:10pm

Wed Dec 7, 4:10pm

Wed Dec 7, 3:10pm

Wed Dec 7, 2:10pm

Wed Dec 7, 1:10pm

Wed Dec 7, 12:10pm

Wed Dec 7, 11:10am

Wed Dec 7, 10:10am

Wed Dec 7, 9:10am

Wed Dec 7, 8:10am

Wed Dec 7, 7:10am

Wed Dec 7, 6:10am

Wed Dec 7, 5:10am

Wed Dec 7, 4:10am

Wed Dec 7, 3:10am

Wed Dec 7, 2:10am

Wed Dec 7, 1:10am

Wed Dec 7, 12:10am

Tue Dec 6, 11:10pm

Tue Dec 6, 10:10pm

Tue Dec 6, 9:10pm

Tue Dec 6, 8:10pm

Tue Dec 6, 7:10pm

Tue Dec 6, 6:10pm

Tue Dec 6, 5:10pm

Tue Dec 6, 4:10pm

Tue Dec 6, 3:10pm

Tue Dec 6, 1:10pm

Tue Dec 6, 12:10pm

Tue Dec 6, 11:10am

Tue Dec 6, 10:10am

Tue Dec 6, 9:10am

Tue Dec 6, 8:10am

Tue Dec 6, 7:10am

Tue Dec 6, 6:10am

Tue Dec 6, 5:10am

Tue Dec 6, 4:10am

Tue Dec 6, 3:10am

Tue Dec 6, 2:10am

Tue Dec 6, 1:10am

Tue Dec 6, 12:10am

Mon Dec 5, 11:10pm

Mon Dec 5, 10:10pm

Mon Dec 5, 9:10pm

Mon Dec 5, 8:10pm

Mon Dec 5, 7:10pm

Mon Dec 5, 6:10pm

Mon Dec 5, 5:10pm

Mon Dec 5, 4:10pm

Mon Dec 5, 3:10pm

Mon Dec 5, 2:10pm

Mon Dec 5, 1:10pm

Mon Dec 5, 12:10pm

Mon Dec 5, 11:10am

Mon Dec 5, 10:10am

Mon Dec 5, 9:10am

Mon Dec 5, 8:10am

Mon Dec 5, 7:10am

Mon Dec 5, 6:10am

Mon Dec 5, 5:10am

Mon Dec 5, 4:10am

Mon Dec 5, 3:10am

Mon Dec 5, 2:10am

Mon Dec 5, 1:10am

Mon Dec 5, 12:10am

Sun Dec 4, 11:10pm

Sun Dec 4, 10:10pm

Sun Dec 4, 9:10pm

Sun Dec 4, 8:10pm

Sun Dec 4, 7:10pm

Sun Dec 4, 6:10pm

Sun Dec 4, 5:10pm

Sun Dec 4, 4:10pm

Sun Dec 4, 3:10pm

Sun Dec 4, 2:10pm

Sun Dec 4, 1:10pm

Sun Dec 4, 12:10pm

Sun Dec 4, 11:10am

Sun Dec 4, 10:10am

Sun Dec 4, 9:10am

Sun Dec 4, 8:10am

Sun Dec 4, 7:10am

Sun Dec 4, 6:10am

Sun Dec 4, 5:10am

Sun Dec 4, 4:10am

Sun Dec 4, 3:10am

Sun Dec 4, 2:10am

Sun Dec 4, 1:10am

Sun Dec 4, 12:10am

Sat Dec 3, 11:10pm

Sat Dec 3, 10:10pm

Sat Dec 3, 9:10pm

Sat Dec 3, 8:10pm

Sat Dec 3, 7:10pm

Sat Dec 3, 6:10pm

Sat Dec 3, 5:10pm

Sat Dec 3, 4:10pm

Sat Dec 3, 3:10pm

Sat Dec 3, 2:10pm

Sat Dec 3, 1:10pm

Sat Dec 3, 12:10pm

Sat Dec 3, 11:10am

Sat Dec 3, 10:10am

Sat Dec 3, 9:10am

Sat Dec 3, 8:10am

Sat Dec 3, 7:10am

Sat Dec 3, 6:10am

Sat Dec 3, 5:10am

Sat Dec 3, 4:10am

Sat Dec 3, 3:10am

Sat Dec 3, 2:10am

Sat Dec 3, 1:10am

Sat Dec 3, 12:10am

Fri Dec 2, 11:10pm

Fri Dec 2, 10:10pm

Fri Dec 2, 9:10pm

Fri Dec 2, 8:10pm

Fri Dec 2, 7:10pm

Fri Dec 2, 6:10pm

Fri Dec 2, 5:10pm

Fri Dec 2, 4:10pm

Fri Dec 2, 3:10pm

Fri Dec 2, 2:10pm

Fri Dec 2, 1:10pm

Fri Dec 2, 12:10pm

Fri Dec 2, 11:10am

Fri Dec 2, 10:10am

Fri Dec 2, 9:10am

Fri Dec 2, 8:10am

Fri Dec 2, 7:10am

Fri Dec 2, 6:10am

Fri Dec 2, 5:10am

Fri Dec 2, 4:10am

Fri Dec 2, 3:10am

Fri Dec 2, 2:10am

Fri Dec 2, 1:10am

Fri Dec 2, 12:10am

Thu Dec 1, 11:10pm

Thu Dec 1, 10:10pm

Thu Dec 1, 9:10pm

Thu Dec 1, 8:10pm

Thu Dec 1, 7:10pm

Thu Dec 1, 6:10pm

Thu Dec 1, 5:10pm

Thu Dec 1, 4:10pm

Thu Dec 1, 3:10pm

Meta data:

ID: d3d98d06-dc5e-4f8b-8385-cdaf5c489908
Link: https://api.weather.gov/products/d3d98d06-dc5e-4f8b-8385-cdaf5c489908